Change the Weather History Date:

Monday, January 7, 2013

  Actual Average Record
Temperature  
Mean Temperature 24 °F -  
Max Temperature 39 °F 23 °F 44 °F (1949)
Min Temperature 8 °F 5 °F -22 °F (1968)
Degree Days  
Heating Degree Days 42    
Moisture  
Dew Point 17 °F    
Average Humidity 72    
Maximum Humidity 93    
Minimum Humidity 48    
Precipitation  
Precipitation 0.00 in - - ()
Sea Level Pressure  
Sea Level Pressure 30.03 in    
Wind  
Wind Speed 6 mph (SSW)    
Max Wind Speed 21 mph    
Max Gust Speed 30 mph    
Visibility 10 miles    
Events      
Averages and records for this station are not official NWS values.
T = Trace of Precipitation, MM = Missing Value Source: NWS Daily Summary

Daily Weather History Graph

Daily Weather History Graph

Search for Another Location

Airport or City:

Trip Planner

Search our weather history database for the weather conditions in past years. The results will help you decide how hot, cold, wet, or windy it might be!

Date:

Astronomy

Jan. 07, 2013 Rise Set
Actual Time 7:31 AM CST 4:33 PM CST
Civil Twilight 6:58 AM CST 5:06 PM CST
Nautical Twilight 6:22 AM CST 5:43 PM CST
Astronomical Twilight 5:47 AM CST 6:18 PM CST
Moon 2:52 AM CST (1/7) 12:46 PM CST (1/7)
Length of Visible Light 10h 08m
Length of Day
9h 02m
Waning Crescent, 22% of the Moon is Illuminated
Jan 7
Waning Crescent
Jan 11
New
Jan 18
First Quarter
Jan 26
Full
Feb 3
Last Quarter

Hourly Weather History & Observations

Time (CST) Temp. Windchill Dew Point Humidity Pressure Visibility Wind Dir Wind Speed Gust Speed Precip Events Conditions
12:15 AM 10.4 °F - 6.8 °F 85% 30.21 in 10.0 mi Calm Calm - N/A   Clear
12:35 AM 10.4 °F - 5.0 °F 79% 30.20 in 10.0 mi Calm Calm - N/A   Clear
12:55 AM 12.2 °F - 8.6 °F 85% 30.20 in 7.0 mi Calm Calm - N/A   Clear
1:15 AM 10.4 °F - 6.8 °F 85% 30.19 in 5.0 mi Calm Calm - N/A   Clear
1:35 AM 10.4 °F - 6.8 °F 85% 30.19 in 4.0 mi Calm Calm - N/A   Clear
2:15 AM 8.6 °F 2.0 °F 3.2 °F 79% 30.18 in 10.0 mi SSE 3.5 mph - N/A   Clear
2:35 AM 8.6 °F 0.1 °F 3.2 °F 79% 30.18 in 10.0 mi South 4.6 mph - N/A   Clear
2:55 AM 10.4 °F 4.0 °F 8.6 °F 92% 30.18 in 7.0 mi South 3.5 mph - N/A   Clear
3:15 AM 12.2 °F 6.1 °F 8.6 °F 85% 30.16 in 10.0 mi South 3.5 mph - N/A   Clear
3:35 AM 12.2 °F 4.3 °F 8.6 °F 85% 30.16 in 10.0 mi South 4.6 mph - N/A   Clear
3:55 AM 14.0 °F 8.2 °F 10.4 °F 86% 30.14 in 10.0 mi South 3.5 mph - N/A   Clear
4:15 AM 14.0 °F 3.9 °F 12.2 °F 93% 30.13 in 10.0 mi South 6.9 mph - N/A   Clear
4:35 AM 14.0 °F 6.5 °F 10.4 °F 86% 30.12 in 10.0 mi South 4.6 mph - N/A   Clear
4:55 AM 14.0 °F 3.9 °F 10.4 °F 86% 30.11 in 10.0 mi South 6.9 mph - N/A   Clear
5:15 AM 14.0 °F 3.9 °F 12.2 °F 93% 30.09 in 10.0 mi South 6.9 mph - N/A   Clear
5:35 AM 14.0 °F 3.9 °F 10.4 °F 86% 30.09 in 10.0 mi South 6.9 mph - N/A   Clear
5:55 AM 14.0 °F 3.9 °F 12.2 °F 93% 30.08 in 10.0 mi South 6.9 mph - N/A   Clear
6:15 AM 17.6 °F 6.4 °F 12.2 °F 79% 30.07 in 10.0 mi South 9.2 mph - N/A   Clear
6:35 AM 17.6 °F 9.3 °F 12.2 °F 79% 30.08 in 10.0 mi SSW 5.8 mph - N/A   Clear
6:55 AM 17.6 °F 7.3 °F 12.2 °F 79% 30.07 in 10.0 mi South 8.1 mph - N/A   Clear
7:15 AM 17.6 °F 5.7 °F 14.0 °F 86% 30.07 in 10.0 mi South 10.4 mph - N/A   Clear
7:35 AM 17.6 °F 7.3 °F 14.0 °F 86% 30.06 in 10.0 mi South 8.1 mph - N/A   Clear
7:55 AM 19.4 °F 10.4 °F 14.0 °F 80% 30.06 in 10.0 mi South 6.9 mph - N/A   Clear
8:15 AM 19.4 °F 10.4 °F 14.0 °F 80% 30.05 in 10.0 mi South 6.9 mph - N/A   Clear
8:35 AM 21.2 °F 10.1 °F 15.8 °F 80% 30.03 in 10.0 mi South 10.4 mph - N/A   Clear
8:55 AM 23.0 °F 11.7 °F 15.8 °F 74% 30.03 in 10.0 mi South 11.5 mph - N/A   Clear
9:35 AM 26.6 °F 16.2 °F 14.0 °F 59% 30.03 in 10.0 mi South 11.5 mph 16.1 mph N/A   Clear
10:15 AM 30.2 °F 20.8 °F 15.8 °F 55% 30.01 in 10.0 mi South 11.5 mph 17.3 mph N/A   Clear
11:00 AM 33.8 °F 25.3 °F 17.6 °F 52% 29.99 in 10.0 mi South 11.5 mph - N/A   Clear
11:15 AM 33.8 °F 25.8 °F 19.4 °F 56% 29.99 in 10.0 mi SSW 10.4 mph - N/A   Clear
11:55 AM 37.4 °F 27.8 °F 19.4 °F 48% 29.96 in 10.0 mi SSW 17.3 mph 23.0 mph N/A   Clear
12:15 PM 35.6 °F 26.2 °F 19.4 °F 52% 29.94 in 10.0 mi SSW 15.0 mph 24.2 mph N/A   Clear
12:35 PM 37.4 °F 29.3 °F 21.2 °F 52% 29.93 in 10.0 mi SSW 12.7 mph - N/A   Clear
12:55 PM 37.4 °F 29.3 °F 21.2 °F 52% 29.94 in 10.0 mi SSW 12.7 mph - N/A   Clear
1:15 PM 37.4 °F 30.3 °F 21.2 °F 52% 29.93 in 10.0 mi SSW 10.4 mph - N/A   Clear
1:35 PM 39.2 °F 30.5 °F 23.0 °F 52% 29.93 in 10.0 mi SW 16.1 mph 27.6 mph N/A   Clear
1:55 PM 37.4 °F 26.9 °F 23.0 °F 56% 29.92 in 10.0 mi SW 20.7 mph 29.9 mph N/A   Clear
2:15 PM 37.4 °F 27.5 °F 23.0 °F 56% 29.92 in 10.0 mi SW 18.4 mph 24.2 mph N/A   Clear
2:35 PM 39.2 °F 30.8 °F 23.0 °F 52% 29.91 in 10.0 mi SW 15.0 mph 24.2 mph N/A   Clear
2:55 PM 39.2 °F 31.6 °F 23.0 °F 52% 29.92 in 10.0 mi SW 12.7 mph 23.0 mph N/A   Clear
3:15 PM 37.4 °F 29.3 °F 23.0 °F 56% 29.94 in 10.0 mi WSW 12.7 mph - N/A   Clear
3:35 PM 37.4 °F 29.3 °F 23.0 °F 56% 29.95 in 10.0 mi WSW 12.7 mph 21.9 mph N/A   Clear
3:55 PM 37.4 °F 28.5 °F 24.8 °F 60% 29.95 in 10.0 mi SW 15.0 mph 19.6 mph N/A   Clear
4:15 PM 37.4 °F 30.3 °F 24.8 °F 60% 29.95 in 10.0 mi SW 10.4 mph - N/A   Clear
4:35 PM 35.6 °F 28.0 °F 24.8 °F 65% 29.95 in 10.0 mi SW 10.4 mph - N/A   Clear
4:55 PM 35.6 °F 28.6 °F 24.8 °F 65% 29.95 in 10.0 mi SW 9.2 mph - N/A   Clear
5:15 PM 33.8 °F 27.7 °F 23.0 °F 65% 29.95 in 10.0 mi SW 6.9 mph - N/A   Clear
5:35 PM 33.8 °F 28.6 °F 23.0 °F 65% 29.95 in 10.0 mi SW 5.8 mph - N/A   Clear
5:55 PM 33.8 °F 28.6 °F 23.0 °F 65% 29.96 in 10.0 mi SW 5.8 mph - N/A   Clear
6:15 PM 32.0 °F 27.5 °F 23.0 °F 69% 29.96 in 10.0 mi SSW 4.6 mph - N/A   Clear
6:35 PM 32.0 °F 26.4 °F 23.0 °F 69% 29.96 in 10.0 mi SSW 5.8 mph - N/A   Clear
6:55 PM 32.0 °F 27.5 °F 23.0 °F 69% 29.97 in 10.0 mi SSW 4.6 mph - N/A   Clear
7:15 PM 32.0 °F 28.7 °F 23.0 °F 69% 29.98 in 10.0 mi SSW 3.5 mph - N/A   Clear
7:35 PM 32.0 °F 26.4 °F 23.0 °F 69% 29.98 in 10.0 mi SSW 5.8 mph - N/A   Clear
7:55 PM 30.2 °F 25.4 °F 23.0 °F 75% 29.98 in 10.0 mi SW 4.6 mph - N/A   Clear
8:15 PM 28.4 °F 24.6 °F 21.2 °F 74% 29.97 in 10.0 mi SSW 3.5 mph - N/A   Clear
8:55 PM 30.2 °F 26.7 °F 23.0 °F 75% 29.98 in 10.0 mi SW 3.5 mph - N/A   Clear
9:15 PM 28.4 °F 22.2 °F 21.2 °F 74% 29.98 in 10.0 mi SW 5.8 mph - N/A   Clear
9:35 PM 28.4 °F 23.3 °F 21.2 °F 74% 29.98 in 10.0 mi SW 4.6 mph - N/A   Clear
9:55 PM 28.4 °F 22.2 °F 21.2 °F 74% 29.98 in 10.0 mi SW 5.8 mph - N/A   Clear
10:35 PM 28.4 °F 24.6 °F 21.2 °F 74% 29.99 in 10.0 mi SW 3.5 mph - N/A   Clear
10:55 PM 28.4 °F 24.6 °F 21.2 °F 74% 30.00 in 10.0 mi WSW 3.5 mph - N/A   Clear
11:15 PM 26.6 °F 20.0 °F 21.2 °F 80% 29.99 in 10.0 mi SW 5.8 mph - N/A   Clear
11:35 PM 26.6 °F 22.6 °F 21.2 °F 80% 30.00 in 10.0 mi SW 3.5 mph - N/A   Clear
11:55 PM 26.6 °F 21.2 °F 21.2 °F 80% 29.99 in 10.0 mi SW 4.6 mph - N/A   Clear